User: anonymous   Login
Location: Unspecified
(0.0000°N, 0.0000°E)
Time: 08:57:15
(UTC+00:00)
Language:

GRIFEX - Orbit

View from above orbital plane
View from above orbital plane
View from above satellite
View from above satellite

Ground track
Ground track

The orbit data is extracted from the following two-line orbital elements,

1 40379U 15003D   17204.75716046 +.00001293 +00000-0 +62502-4 0  9996
2 40379 099.1252 033.6776 0140952 249.0057 109.6041 15.13030668136412
Epoch (UTC): 23 July 2017 18:10:18
Eccentricity: 0.0140952
inclination: 99.1252°
perigee height: 429 km
apogee height: 624 km
right ascension of ascending node: 33.6776°
argument of perigee: 249.0057°
revolutions per day: 15.13030668
mean anomaly at epoch: 109.6041°
orbit number at epoch: 13641

The dashed part of the orbit path shows where the satellite is in the earth's shadow,  

DLR